Location: St. Louis
(38.6270°N, 90.1994°W)
Time: 03:54:05
(UTC-06:00)

Vanguard 2 Rocket - Pass Details

Date: 01 December 2021
Orbit: 554 x 3324 km, 32.9° (Epoch: 17 January)

Event Time Altitude Azimuth Distance (km) Brightness Sun altitude
Rises 18:41:25 0° 241° (WSW) 3,441 11.1 -23.2°
Reaches altitude 10° 18:43:32 10° 235° (SW) 2,727 10.2 -23.6°
Maximum altitude 18:49:58 52° 161° (SSE) 1,685 8.1 -24.9°
Enters shadow 18:53:34 37° 111° (ESE) 2,365 8.5 -25.6°
